SCP
0 0 0 0 0 0 0 0 0 0 0 0 0 0 0 0 0 0 0 0 0 0 0 0 0 0 0 0 0 0 0 0 0 0 0 0 0 0 0 0 0 0 0 0
0 0 0 0 0 0 0 0 0 0 0 0 0 0 0 0 0 0 0 0 0 0 0 0 0 0 0 0 0 0 0 0 0 0 0 0 0 0 0 0 0 0 0 0
0 0 0 0 0 0 0 0 0 0 0 0 0 0 0 0 0 0 0 0 0 0 0 0 0 0 0 0 0 0 0 0 0 0 0 0 0 0 0 0 0 0 0 0
0 0 0 0 0 0 0 0 0 0 0 0 0 0 0 0 0 0 0 0 0 0 0 0 0 0 0 0 0 0 0 0 0 0 0 0 0 0 0 0 0 0 0 0
0 0 0 0 0 0 0 0 0 0 0 0 0 0 0 0 0 0 0 0 0 0 0 0 0 0 0 0 0 0 0 0 0 0 0 0 0 0 0 0 0 0 0 0
0 0 0 0 0 0 0 0 0 0 0 0 0 0 0 0 0 0 0 0 0 0 0 0 0 0 0 0 0 0 0 0 0 0 0 0 0 0 0 0 0 0 0 0
0 0 0 0 0 0 0 0 0 0 0 0 0 0 0 0 0 0 0 0 0 0 0 0 0 0 0 0 0 0 0 0 0 0 0 0 0 0 0 0 0 0 0 0
0 0 0 0 0 0 0 0 0 0 0 0 0 0 0 0 0 0 0 0 0 0 0 0 0 0 0 0 0 0 0 0 0 0 0 0 0 0 0 0 0 0 0 0
0 0 0 0 0 0 0 0 0 0 0 0 0 0 0 0 0 0 0 0 0 0 0 0 0 0 0 0 0 0 0 0 0 0 0 0 0 0 0 0 0 0 0 0
0 0 0 0 0 0 0 0 0 0 0 0 0 0 0 0 0 0 0 0 0 0 0 0 0 0 0 0 0 0 0 0 0 0 0 0 0 0 0 0 0 0 0 0
0 0 0 0 0 0 0 0 0 0 0 0 0 0 0 0 0 0 0 0 0 0 0 0 0 0 0 0 0 0 0 0 0 0 0 0 0 0 0 0 0 0 0 0
0 0 0 0 0 0 0 0 0 0 0 0 0 0 0 0 0 0 0 0 0 0 0 0 0 0 0 0 0 0 0 0 0 0 0 0 0 0 0 0 0 0 0 0
0 0 0 0 0 0 0 0 0 0 0 0 0 0 0 0 0 0 0 0 0 0 0 0 0 0 0 0 0 0 0 0 0 0 0 0 0 0 0 0 0 0 0 0
0 0 0 0 0 0 0 0 0 0 0 0 0 0 0 0 0 0 0 0 0 0 0 0 0 0 0 0 0 0 0 0 0 0 0 0 0 0 0 0 0 0 0 0
0 0 0 0 0 0 0 0 0 0 0 0 0 0 0 0 0 0 0 0 0 0 0 0 0 0 0 0 0 0 0 0 0 0 0 0 0 0 0 0 0 0 0 0
0 0 0 0 0 0 0 0 0 0 0 0 0 0 0 0 0 0 0 0 0 0 0 0 0 0 0 0 0 0 0 0 0 0 0 0 0 0 0 0 0 0 0 0
0 0 0 0 0 0 0 0 0 0 0 0 0 0 0 0 0 0 0 0 0 0 0 0 0 0 0 0 0 0 0 0 0 0 0 0 0 0 0 0 0 0 0 0
0 0 0 0 0 0 0 0 0 0 0 0 0 0 0 0 0 0 0 0 0 0 0 0 0 0 0 0 0 0 0 0 0 0 0 0 0 0 0 0 0 0 0 0
0 0 0 0 0 0 0 0 0 0 0 0 0 0 0 0 0 0 0 0 0 0 0 0 0 0 0 0 0 0 0 0 0 0 0 0 0 0 0 0 0 0 0 0
0 0 0 0 0 0 0 0 0 0 0 0 0 0 0 0 0 0 0 0 0 0 0 0 0 0 0 0 0 0 0 0 0 0 0 0 0 0 0 0 0 0 0 0
0 0 0 0 0 0 0 0 0 0 0 0 0 0 0 0 0 0 0 0 0 0 0 0 0 0 0 0 0 0 0 0 0 0 0 0 0 0 0 0 0 0 0 0
0 0 0 0 0 0 0 0 0 0 0 0 0 0 0 0 0 0 0 0 0 0 0 0 0 0 0 0 0 0 0 0 0 0 0 0 0 0 0 0 0 0 0 0
0 0 0 0 0 0 0 0 0 0 0 0 0 0 0 0 0 0 0 0 0 0 0 0 0 0 0 0 0 0 0 0 0 0 0 0 0 0 0 0 0 0 0 0
0 0 0 0 0 0 0 0 0 0 0 0 0 0 0 0 0 0 0 0 0 0 0 0 0 0 0 0 0 0 0 0 0 0 0 0 0 0 0 0 0 0 0 0
0 0 0 0 0 0 0 0 0 0 0 0 0 0 0 0 0 0 0 0 0 0 0 0 0 0 0 0 0 0 0 0 0 0 0 0 0 0 0 0 0 0 0 0
0 0 0 0 0 0 0 0 0 0 0 0 0 0 0 0 0 0 0 0 0 0 0 0 0 0 0 0 0 0 0 0 0 0 0 0 0 0 0 0 0 0 0 0
0 0 0 0 0 0 0 0 0 0 0 0 0 0 0 0 0 0 0 0 0 0 0 0 0 0 0 0 0 0 0 0 0 0 0 0 0 0 0 0 0 0 0 0
Wind_Speed
3 2 6 13 16 15 14 10 7 8 8 11 16 15 14 15 14 13 14 13 12 10 8 7 7 6 5 3 2 1 1 1 1 1 1 1 2 2 2 3 3 4 4 4
1 1 6 10 17 14 11 10 9 10 7 13 14 12 13 15 16 14 13 13 12 11 11 11 11 10 9 9 7 6 6 6 5 4 3 2 2 2 2 2 2 2 4 4
1 4 2 8 11 11 7 8 9 8 10 15 13 14 12 13 15 14 12 10 11 10 9 9 9 8 9 8 8 8 8 8 8 7 7 6 5 5 5 4 3 2 2 2
2 4 5 3 3 6 5 4 8 9 11 13 13 10 5 8 12 12 11 9 8 8 7 7 6 7 7 7 7 8 8 8 8 8 7 7 7 7 6 5 5 5 5 4
3 3 1 4 2 3 3 3 5 9 12 13 13 6 4 10 13 9 7 5 5 5 5 6 7 6 6 7 7 7 7 7 7 7 7 7 7 7 6 5 6 5 5 6
4 4 2 5 4 1 1 3 4 6 9 11 10 7 8 12 13 10 7 4 4 4 5 5 6 5 6 6 6 6 6 5 5 6 6 6 6 6 5 5 5 5 6 7
3 2 4 6 3 1 2 3 6 5 6 5 4 4 10 13 9 7 5 3 2 3 3 4 4 4 5 5 5 4 4 4 5 5 5 5 5 5 5 5 6 6 6 6
3 2 5 4 2 3 5 4 4 4 4 4 7 8 8 8 8 7 5 4 3 3 4 4 3 3 4 4 4 3 3 4 4 5 5 4 5 5 5 6 6 7 6 6
6 5 5 3 4 4 3 3 4 4 5 5 6 6 7 7 8 7 6 4 3 3 4 4 3 1 2 3 2 1 2 3 3 4 4 4 4 5 4 5 5 5 5 6
2 4 4 3 3 3 3 5 5 5 6 4 4 6 7 7 7 7 6 5 4 4 4 5 4 3 3 3 1 1 1 2 2 3 3 3 3 3 3 4 4 5 5 5
4 4 2 4 5 4 3 3 3 3 3 3 4 5 5 6 7 6 6 5 4 4 5 6 5 5 4 3 2 2 1 2 2 3 3 3 2 2 2 2 2 3 3 4
8 9 7 7 5 4 3 2 1 2 4 4 4 5 6 6 5 6 7 6 6 6 6 7 6 6 5 3 3 3 2 1 1 2 2 2 2 2 1 1 4 5 5 5
6 6 6 4 3 3 3 2 1 1 2 4 5 4 5 5 6 6 7 7 7 7 7 7 6 6 5 4 4 4 3 2 0 1 2 2 2 2 3 3 3 4 6 9
5 7 4 4 4 4 3 1 0 1 2 3 4 5 5 5 6 7 8 8 8 8 7 6 6 6 5 4 4 4 3 2 2 1 1 1 1 2 2 2 3 4 5 9
8 6 7 6 5 4 3 2 1 2 4 4 4 4 6 6 7 8 8 8 7 7 7 7 7 7 6 3 4 4 4 2 2 2 1 1 2 2 3 3 3 3 3 5
8 5 6 7 7 6 4 3 2 2 3 3 4 5 5 6 6 7 7 7 7 8 8 9 9 9 8 3 3 3 3 5 4 2 2 2 2 2 2 3 3 3 4 4
12 9 8 8 8 7 6 5 4 3 3 4 4 5 5 5 6 7 8 7 6 6 6 7 10 11 8 3 3 3 3 4 5 3 2 2 2 2 2 2 3 3 3 4
14 13 10 10 9 7 6 5 4 4 4 4 4 3 4 5 6 7 8 8 7 7 6 7 10 11 9 3 2 3 3 3 3 3 2 2 2 2 2 2 2 3 2 3
9 9 9 9 8 7 6 5 4 4 4 4 3 3 3 4 4 6 6 7 7 8 10 11 16 11 8 5 1 3 4 4 3 2 2 3 3 2 2 2 2 2 2 2
9 9 9 9 7 6 6 5 4 4 3 3 3 3 4 5 5 5 5 5 4 5 8 10 9 7 7 5 2 2 3 4 4 3 3 2 2 2 2 2 2 2 2 1
10 9 10 9 8 6 6 5 4 4 3 3 3 3 4 5 5 4 4 5 6 7 8 12 7 5 5 6 3 1 2 3 4 4 3 3 3 3 3 3 2 2 2 1
10 10 10 9 8 6 5 5 5 4 3 3 3 3 4 5 5 5 5 5 6 11 8 6 5 7 10 8 2 2 3 3 3 3 3 3 3 3 3 3 2 2 2 2
9 9 9 9 9 7 5 5 5 5 5 5 5 4 4 4 3 3 5 5 6 11 9 6 10 14 14 4 2 3 3 4 3 3 3 4 4 4 3 3 3 3 2 2
9 9 9 8 6 5 5 6 6 4 5 5 5 5 4 3 4 4 5 9 12 12 7 9 15 15 10 2 3 3 4 4 3 3 3 3 3 4 4 4 3 3 3 3
9 9 8 8 7 6 7 6 5 4 5 4 5 5 4 4 4 5 5 7 11 11 7 10 14 14 6 2 3 4 4 4 4 4 4 3 4 4 4 4 4 3 3 3
8 8 8 9 8 6 5 5 4 4 4 4 4 4 4 3 4 4 4 6 8 10 7 6 6 7 4 3 3 4 4 4 4 4 4 4 4 4 4 4 5 4 4 4
4 4 4 4 4 5 5 5 5 5 5 5 5 4 4 4 3 4 4 5 5 6 6 6 5 5 4 3 3 3 4 4 4 4 4 4 4 4 5 6 5 4 4 4
Wind_Direction
127 108 43 33 21 25 35 28 19 355 353 354 346 343 351 358 1 15 24 27 31 31 27 23 23 25 35 44 39 48 66 29 354 347 347 296 279 278 261 241 233 224 226 228
182 256 36 30 16 13 21 16 4 359 6 344 339 349 1 5 8 14 16 17 20 23 24 26 28 31 38 41 42 51 52 39 24 22 24 6 343 344 336 311 279 240 236 235
331 312 30 19 358 355 5 26 3 356 342 334 343 347 352 1 4 6 4 6 11 14 16 18 21 26 32 29 35 47 48 41 35 34 33 25 24 29 20 9 3 341 314 283
67 51 53 287 299 341 350 35 13 350 343 347 340 320 320 8 3 354 352 358 2 4 9 9 14 23 28 29 34 40 40 35 29 30 30 25 29 28 19 16 19 13 6 354
96 92 334 312 339 1 345 334 0 349 348 351 338 332 2 1 355 341 336 343 349 355 360 5 10 11 30 27 25 31 28 26 22 25 29 27 26 20 15 20 23 20 18 16
108 116 211 255 272 293 200 319 336 342 341 346 358 23 337 331 332 327 331 339 352 353 359 4 354 2 30 21 22 17 10 14 17 25 31 27 21 17 14 20 21 21 25 22
113 147 246 245 270 124 133 264 303 310 314 330 342 268 282 304 314 316 316 323 355 3 347 330 334 6 21 12 5 350 2 20 23 23 31 31 30 25 22 25 28 24 19 15
136 158 246 238 156 163 209 241 270 279 287 300 294 290 299 313 328 336 334 329 345 347 328 318 328 3 4 345 327 343 19 30 24 19 23 27 34 31 30 29 31 21 12 9
186 212 239 221 212 225 207 246 267 270 289 298 298 308 319 325 333 335 332 324 326 330 321 320 320 308 316 306 315 338 12 18 12 16 20 21 30 29 30 31 30 18 11 7
221 263 258 249 251 262 240 243 267 279 287 292 298 307 320 327 333 336 332 327 324 328 321 312 311 294 265 281 279 266 313 336 356 8 6 12 24 28 34 30 24 15 8 2
220 249 259 263 244 247 267 271 292 317 311 314 323 326 322 322 324 327 325 322 326 317 299 290 295 291 275 254 200 220 269 312 347 358 354 356 18 25 21 21 4 354 350 349
205 202 182 216 227 223 221 232 294 334 341 339 336 324 324 318 314 318 320 321 326 321 303 292 288 281 275 240 198 202 239 279 342 354 350 358 9 12 355 310 328 339 343 346
189 171 175 194 201 206 202 218 246 291 324 325 328 326 327 319 313 320 322 326 323 315 304 297 290 281 277 244 202 198 213 223 153 26 12 8 26 35 12 348 341 345 353 359
156 131 151 186 194 200 198 197 348 352 343 332 324 328 329 325 322 330 330 324 317 314 316 317 312 303 297 260 208 196 194 187 153 118 70 46 57 55 41 24 5 349 350 8
180 168 168 174 176 178 176 163 103 339 333 333 330 330 331 331 327 327 327 329 328 334 342 345 342 330 324 289 206 187 173 162 148 137 118 109 87 66 53 46 38 10 357 1
174 162 151 157 173 178 173 175 198 276 299 305 314 320 321 320 319 324 334 346 349 343 341 343 338 326 319 295 197 173 171 166 149 135 121 118 100 80 62 51 44 37 29 10
159 175 179 183 188 190 189 192 207 240 271 285 297 308 323 331 337 342 342 342 334 321 322 335 331 328 323 287 179 162 154 151 139 122 129 142 134 115 93 71 60 56 42 38
183 185 182 182 181 188 196 201 213 234 254 275 295 318 340 343 337 330 329 333 337 338 341 343 340 341 339 334 157 146 142 135 130 134 135 137 137 134 120 96 81 79 59 45
184 178 177 180 182 181 189 201 215 233 265 279 288 310 318 321 321 320 326 339 345 341 335 336 339 347 344 338 115 137 142 139 135 136 137 134 126 130 134 125 111 100 89 66
182 175 173 179 179 180 192 204 210 230 252 259 276 305 320 322 324 326 330 324 302 288 303 319 328 332 336 335 330 157 158 155 152 149 143 139 144 152 156 150 144 136 123 110
179 173 173 178 186 194 198 196 196 223 247 248 255 276 293 304 316 325 328 315 301 310 315 320 325 317 320 322 304 194 173 164 162 162 158 156 157 163 169 169 163 160 157 150
178 176 178 179 182 195 203 193 197 217 240 250 254 264 288 304 315 316 296 269 285 313 317 306 307 309 320 318 252 195 180 172 169 167 165 164 168 175 181 179 175 169 164 158
180 180 178 180 186 194 192 192 200 210 226 235 240 247 256 269 276 288 298 293 300 312 315 298 307 314 316 305 207 186 178 176 179 184 184 179 179 181 181 179 173 166 163 159
178 181 184 180 168 173 200 215 208 210 220 232 237 236 234 262 283 263 254 296 310 313 308 305 314 319 316 247 192 180 178 181 184 190 194 189 183 179 176 169 167 171 171 162
182 180 173 167 177 199 213 213 205 213 221 235 250 247 232 215 234 270 291 296 306 313 308 315 324 326 316 241 196 184 182 187 186 183 189 192 187 180 175 169 170 173 172 167
184 188 191 193 195 197 195 190 200 212 209 229 250 248 241 234 240 260 277 289 299 308 310 307 313 317 302 265 218 196 187 190 191 187 189 191 189 181 173 172 172 173 173 169
194 196 193 203 211 200 189 189 203 217 212 211 231 240 234 238 248 266 283 292 301 305 306 307 308 306 296 273 245 216 193 188 189 190 187 185 184 185 182 176 172 170 168 167